Weather History for Milwaukee Timmerman, WI

Change the Weather History Date:

Monday, May 12, 2014

  Actual Average Record
Temperature  
Mean Temperature 64 °F -  
Max Temperature 75 °F 68 °F 89 °F (1991)
Min Temperature 53 °F 45 °F 32 °F (1960)
Degree Days  
Heating Degree Days 1    
Growing Degree Days 14 (Base 50)    
Moisture  
Dew Point 57 °F    
Average Humidity 85    
Maximum Humidity 94    
Minimum Humidity 68    
Precipitation  
Precipitation 0.21 in - - ()
Sea Level Pressure  
Sea Level Pressure 29.87 in    
Wind  
Wind Speed 5 mph (SE)    
Max Wind Speed 29 mph    
Max Gust Speed 44 mph    
Visibility 8 miles    
Events Rain , Thunderstorm    
Averages and records for this station are not official NWS values.
T = Trace of Precipitation, MM = Missing Value Source: NWS Daily Summary

Daily Weather History Graph

Daily Weather History Graph

Search for Another Location

Airport:

Trip Planner

Search our weather history database for the weather conditions in past years. The results will help you decide how hot, cold, wet, or windy it might be!

Date:

Astronomy

May. 12, 2014 Rise Set
Actual Time 5:31 AM CDT 8:05 PM CDT
Civil Twilight 4:59 AM CDT 8:38 PM CDT
Nautical Twilight 4:19 AM CDT 9:18 PM CDT
Astronomical Twilight 3:33 AM CDT 10:05 PM CDT
Moon 6:00 PM CDT (5/12) 4:14 AM CDT (5/12)
Length of Visible Light 15h 38m
Length of Day
14h 33m
Waxing Gibbous, 95% of the Moon is Illuminated
May 12
Waxing Gibbous
May 14
Full
May 21
Last Quarter
May 28
New
Jun 5
First Quarter

Hourly Weather History & Observations

Time (CDT) Temp. Dew Point Humidity Pressure Visibility Wind Dir Wind Speed Gust Speed Precip Events Conditions
12:15 AM 53.6 °F 50.0 °F 88% 29.94 in 10.0 mi ESE 6.9 mph - N/A   Mostly Cloudy
12:35 AM 53.6 °F 50.0 °F 88% 29.94 in 10.0 mi ESE 4.6 mph - N/A   Scattered Clouds
12:55 AM 53.6 °F 50.0 °F 88% 29.93 in 10.0 mi Calm Calm - N/A   Scattered Clouds
1:15 AM 53.6 °F 50.0 °F 88% 29.92 in 10.0 mi ESE 3.5 mph - N/A   Scattered Clouds
1:35 AM 53.6 °F 50.0 °F 88% 29.91 in 7.0 mi Calm Calm - N/A   Scattered Clouds
1:55 AM 53.6 °F 50.0 °F 88% 29.90 in 10.0 mi ESE 3.5 mph - N/A   Mostly Cloudy
2:15 AM 53.6 °F 50.0 °F 88% 29.88 in 7.0 mi SE 3.5 mph - N/A   Scattered Clouds
2:35 AM 53.6 °F 51.8 °F 94% 29.88 in 7.0 mi Calm Calm - N/A   Clear
2:55 AM 55.4 °F 51.8 °F 88% 29.87 in 7.0 mi East 3.5 mph - N/A   Scattered Clouds
3:15 AM 53.6 °F 50.0 °F 88% 29.86 in 7.0 mi ESE 3.5 mph - N/A   Mostly Cloudy
3:35 AM 55.4 °F 51.8 °F 88% 29.86 in 7.0 mi Calm Calm - 0.01 in Rain Light Rain
3:55 AM 55.4 °F 51.8 °F 88% 29.86 in 7.0 mi SE 3.5 mph - 0.01 in   Mostly Cloudy
4:15 AM 55.4 °F 51.8 °F 88% 29.87 in 7.0 mi Calm Calm - N/A   Scattered Clouds
4:35 AM 55.4 °F 51.8 °F 88% 29.86 in 5.0 mi East 3.5 mph - N/A   Mostly Cloudy
4:55 AM 53.6 °F 51.8 °F 94% 29.85 in 5.0 mi ESE 3.5 mph - N/A   Mostly Cloudy
5:15 AM 53.6 °F 51.8 °F 94% 29.85 in 5.0 mi ENE 3.5 mph - N/A   Overcast
5:35 AM 53.6 °F 51.8 °F 94% 29.84 in 5.0 mi Calm Calm - N/A   Overcast
5:55 AM 53.6 °F 50.0 °F 88% 29.85 in 7.0 mi Calm Calm - N/A   Overcast
6:15 AM 53.6 °F 50.0 °F 88% 29.86 in 5.0 mi North 4.6 mph - N/A   Overcast
6:35 AM 53.6 °F 50.0 °F 88% 29.86 in 5.0 mi NE 3.5 mph - N/A   Overcast
6:45 AM 53.6 °F 51.8 °F 94% 29.85 in 10.0 mi NE 4.6 mph - N/A   Overcast
8:45 AM 57.2 °F 53.6 °F 88% 29.86 in 5.0 mi Calm Calm - N/A   Haze
9:30 AM 64.4 °F 59.0 °F 83% 29.85 in 7.0 mi South 5.8 mph - N/A   Haze
9:45 AM 66.2 °F 60.8 °F 83% 29.85 in 7.0 mi SSE 5.8 mph - N/A   Haze
10:30 AM 75.2 °F 66.2 °F 73% 29.83 in 10.0 mi SSW 10.4 mph - N/A   Mostly Cloudy
10:45 AM 75.2 °F 66.2 °F 73% 29.85 in 10.0 mi SSW 11.5 mph - N/A   Mostly Cloudy
11:45 AM 75.2 °F 66.2 °F 73% 29.86 in 7.0 mi SW 9.2 mph 18.4 mph N/A   Haze
12:28 PM 69.8 °F 59.0 °F 68% 29.90 in 2.0 mi NW 20.7 mph 33.4 mph N/A Rain Heavy Rain
12:45 PM 64.4 °F 60.8 °F 88% 29.92 in 2.0 mi WSW 8.1 mph 25.3 mph N/A Rain Heavy Rain
1:23 PM 64.4 °F 62.6 °F 94% 29.86 in 7.0 mi NNE 6.9 mph - N/A Rain Light Rain
1:45 PM 64.4 °F 62.6 °F 94% 29.86 in 10.0 mi East 9.2 mph - N/A   Scattered Clouds
2:01 PM 64.4 °F 62.6 °F 94% 29.86 in 7.0 mi East 8.1 mph - N/A   Haze
2:45 PM 66.2 °F 62.6 °F 88% 29.86 in 10.0 mi SSE 6.9 mph - N/A   Mostly Cloudy
3:15 PM 69.8 °F 62.6 °F 78% 29.84 in 10.0 mi SE 6.9 mph - N/A   Clear
3:45 PM 71.6 °F 62.6 °F 73% 29.83 in 10.0 mi SE 4.6 mph - N/A   Clear
4:45 PM 71.6 °F 62.6 °F 73% 29.83 in 10.0 mi East 5.8 mph - N/A   Clear
5:45 PM 66.2 °F 59.0 °F 78% 29.83 in 10.0 mi SE 11.5 mph - N/A   Clear
6:45 PM 66.2 °F 60.8 °F 83% 29.84 in 10.0 mi SE 5.8 mph - N/A Rain , Thunderstorm Light Thunderstorms and Rain
7:45 PM 64.4 °F 59.0 °F 83% 29.86 in 2.0 mi South 28.8 mph 43.7 mph N/A Rain , Thunderstorm Heavy Thunderstorms and Rain
8:45 PM 66.2 °F 57.2 °F 73% 29.81 in 10.0 mi SSE 11.5 mph - N/A Rain , Thunderstorm Light Thunderstorms and Rain
9:15 PM 62.6 °F 59.0 °F 88% 29.83 in 10.0 mi SSE 8.1 mph - N/A   Mostly Cloudy
9:35 PM 64.4 °F 59.0 °F 83% 29.88 in 10.0 mi SSW 12.7 mph - N/A Rain Light Rain
9:55 PM 66.2 °F 59.0 °F 78% 29.90 in 10.0 mi SW 12.7 mph 33.4 mph N/A Rain Light Rain
10:15 PM 66.2 °F 59.0 °F 78% 29.91 in 7.0 mi SSW 8.1 mph - 0.02 in Rain Rain
10:35 PM 64.4 °F 60.8 °F 88% 29.89 in 10.0 mi South 4.6 mph - 0.06 in Rain Light Rain
10:55 PM 64.4 °F 60.8 °F 88% 29.90 in 7.0 mi SW 11.5 mph - 0.08 in Rain Rain
11:15 PM 64.4 °F 60.8 °F 88% 29.89 in 10.0 mi South 9.2 mph - 0.02 in Rain Light Rain
11:55 PM 62.6 °F 60.8 °F 94% 29.92 in 5.0 mi SSW 9.2 mph - 0.12 in Rain Rain